Location: Bathurst
(33.4193°S, 149.5775°E)
Time: 22:42:18
(UTC+10:00)

Vanguard 3 - Pass Details

Date: 29 June 2021
Orbit: 508 x 3261 km, 33.4° (Epoch: 25 July)

Event Time Altitude Azimuth Distance (km) Brightness Sun altitude
Rises 18:34:53 0° 266° (W) 6,197 13.0 -18.4°
Reaches altitude 10° 18:38:29 10° 266° (W) 5,458 12.4 -19.1°
Maximum altitude 18:56:46 88° 353° (N) 3,260 10.0 -22.8°
Enters shadow 19:09:53 29° 79° (E) 4,597 10.4 -25.5°
